SCP
-0 -0 -0 -0 -0 -0 -0 -0 -0 -0 -0 0 0 -0 -0 -0 -0 0 0 0 0 0
0 -0 -0 -0 -0 -0 -0 -0 -0 -0 0 0 0 0 0 0 0 0 0 -0 0 0
-0 -0 -0 -0 -0 0 0 -0 0 -0 0 0 0 0 0 0 0 -0 -0 -0 0 -0
-0 0 -0 -0 -0 0 0 -0 0 -0 -0 0 0 0 0 0 -0 -0 0 0 -0 0
0 0 -0 -0 0 0 0 0 0 -0 -0 0 0 0 0 -0 -0 -0 0 0 0 0
-0 -0 -0 0 0 0 0 0 0 -0 -0 -0 0 -0 -0 -0 -0 -0 0 0 -0 0
-0 -0 -0 0 0 0 0 0 0 -0 -0 -0 -0 -0 -0 -0 0 0 0 0 0 0
-0 -0 -0 -0 -0 0 -0 -0 0 0 -0 -0 -0 0 -0 0 0 0 0 0 0 0
-0 -0 -0 -0 -0 -0 -0 -0 0 0 0 0 0 0 -0 0 0 0 0 0 0 0
-0 -0 -0 -0 -0 -0 -0 -0 0 0 0 0 0 -0 0 0 0 0 0 0 0 0
-0 -0 -0 -0 -0 -0 -0 -0 0 0 0 0 -0 0 0 0 0 0 0 0 0 0
-0 -0 -0 -0 -0 -0 -0 0 0 0 0 0 0 -0 0 0 0 0 0 0 0 0
-0 -0 -0 -0 -0 -0 -0 -0 0 -0 -0 -0 -0 0 0 0 0 0 0 0 0 0
-1 -0 -0 -0 -0 -0 -0 -0 -0 -0 0 -0 -0 0 -0 0 0 0 0 0 0 0
Wind_Speed_500mb
48 44 38 32 30 23 19 21 17 36 25 22 25 27 21 26 24 25 27 26 25 27
50 51 42 38 37 27 20 19 27 16 20 21 23 26 22 21 23 24 23 18 20 23
55 54 44 40 39 33 22 23 26 28 31 22 22 26 22 20 20 17 16 19 22 16
59 58 49 42 33 32 31 23 31 37 33 25 22 26 24 20 18 8 17 21 22 20
57 62 56 47 34 23 24 21 26 45 37 25 24 26 20 22 18 15 10 17 16 22
58 60 56 51 36 25 19 16 15 27 28 27 25 23 20 19 14 13 15 15 14 13
60 57 54 50 41 29 21 25 24 22 24 25 28 26 22 19 18 17 17 9 13 17
61 55 51 49 44 38 29 28 27 28 31 33 32 29 25 22 20 19 14 11 16 19
60 54 48 46 43 43 41 35 35 32 32 33 32 27 22 21 22 18 14 11 13 12
57 54 49 47 44 42 46 41 38 35 29 30 29 26 26 24 21 21 15 12 12 8
59 57 52 51 50 47 44 44 40 36 33 32 30 27 30 28 27 24 20 16 13 10
66 61 58 54 52 52 47 45 43 41 38 35 34 33 38 35 34 30 25 22 18 15
67 66 65 58 54 51 49 47 44 42 40 35 32 35 39 36 36 35 29 27 22 22
69 66 64 60 57 52 50 51 51 50 45 44 37 36 41 38 39 38 34 30 27 27
Wind_Direction_500mb
227 230 233 241 242 249 234 225 241 239 232 227 214 213 209 217 218 224 240 249 259 271
227 230 235 236 237 247 240 243 249 236 220 216 219 211 218 217 218 231 232 231 248 258
226 229 235 241 240 248 248 249 250 227 227 208 205 209 208 208 216 227 234 247 255 279
223 225 232 238 242 250 254 245 246 231 225 215 218 218 211 215 217 232 243 241 249 267
221 224 231 235 241 240 251 268 247 215 212 211 211 221 219 231 230 240 250 260 267 268
221 224 229 231 231 230 233 227 154 166 196 206 220 230 233 238 229 242 255 254 270 277
223 226 229 229 225 216 225 217 212 213 214 220 228 228 228 232 237 246 257 254 284 293
224 228 225 224 221 212 212 206 209 214 218 220 220 222 226 227 235 252 236 271 301 298
219 223 218 215 214 210 209 215 220 216 217 222 226 227 231 237 247 234 237 288 314 315
213 212 210 205 203 204 205 211 222 225 232 233 235 236 239 235 241 227 253 278 320 333
208 206 208 205 204 206 206 212 221 229 236 242 243 234 236 234 235 231 248 267 302 306
204 206 205 208 208 210 214 218 220 228 239 245 250 238 229 233 228 231 245 262 277 299
206 208 206 205 210 214 217 224 229 232 236 243 243 246 237 231 234 234 246 265 281 301
204 203 204 208 213 219 223 227 231 233 235 238 235 239 239 234 235 241 250 267 280 295
Wind_Speed_850mb
48 44 38 32 30 23 19 21 17 36 25 22 25 27 21 26 24 25 27 26 25 27
50 51 42 38 37 27 20 19 27 16 20 21 23 26 22 21 23 24 23 18 20 23
55 54 44 40 39 33 22 23 26 28 31 22 22 26 22 20 20 17 16 19 22 16
59 58 49 42 33 32 31 23 31 37 33 25 22 26 24 20 18 8 17 21 22 20
57 62 56 47 34 23 24 21 26 45 37 25 24 26 20 22 18 15 10 17 16 22
58 60 56 51 36 25 19 16 15 27 28 27 25 23 20 19 14 13 15 15 14 13
60 57 54 50 41 29 21 25 24 22 24 25 28 26 22 19 18 17 17 9 13 17
61 55 51 49 44 38 29 28 27 28 31 33 32 29 25 22 20 19 14 11 16 19
60 54 48 46 43 43 41 35 35 32 32 33 32 27 22 21 22 18 14 11 13 12
57 54 49 47 44 42 46 41 38 35 29 30 29 26 26 24 21 21 15 12 12 8
59 57 52 51 50 47 44 44 40 36 33 32 30 27 30 28 27 24 20 16 13 10
66 61 58 54 52 52 47 45 43 41 38 35 34 33 38 35 34 30 25 22 18 15
67 66 65 58 54 51 49 47 44 42 40 35 32 35 39 36 36 35 29 27 22 22
69 66 64 60 57 52 50 51 51 50 45 44 37 36 41 38 39 38 34 30 27 27
Wind_Direction_850mb
227 230 233 241 242 249 234 225 241 239 232 227 214 213 209 217 218 224 240 249 259 271
227 230 235 236 237 247 240 243 249 236 220 216 219 211 218 217 218 231 232 231 248 258
226 229 235 241 240 248 248 249 250 227 227 208 205 209 208 208 216 227 234 247 255 279
223 225 232 238 242 250 254 245 246 231 225 215 218 218 211 215 217 232 243 241 249 267
221 224 231 235 241 240 251 268 247 215 212 211 211 221 219 231 230 240 250 260 267 268
221 224 229 231 231 230 233 227 154 166 196 206 220 230 233 238 229 242 255 254 270 277
223 226 229 229 225 216 225 217 212 213 214 220 228 228 228 232 237 246 257 254 284 293
224 228 225 224 221 212 212 206 209 214 218 220 220 222 226 227 235 252 236 271 301 298
219 223 218 215 214 210 209 215 220 216 217 222 226 227 231 237 247 234 237 288 314 315
213 212 210 205 203 204 205 211 222 225 232 233 235 236 239 235 241 227 253 278 320 333
208 206 208 205 204 206 206 212 221 229 236 242 243 234 236 234 235 231 248 267 302 306
204 206 205 208 208 210 214 218 220 228 239 245 250 238 229 233 228 231 245 262 277 299
206 208 206 205 210 214 217 224 229 232 236 243 243 246 237 231 234 234 246 265 281 301
204 203 204 208 213 219 223 227 231 233 235 238 235 239 239 234 235 241 250 267 280 295